Regional Weather Roundup
Issued by NWS Charleston, SC

Current Version | Previous Version | Graphics & Text | Print | Product List | Glossary On
Versions: 1 2 3 4 5 6 7 8 9 10 11 12 13 14 15 16 17 18 19 20 21 22 23 24 25 26 27 28 29 30 31 32 33 34 35 36 37 38 39 40 41 42 43 44 45 46 47 48 49 50
000
ASUS42 KCHS 182125
RWRCHS

REGIONAL WEATHER ROUNDUP
NATIONAL WEATHER SERVICE CHARLESTON SC
500 PM EDT THU SEP 18 2014

NOTE: "FAIR" INDICATES FEW OR NO CLOUDS BELOW 12,000 FEET WITH NO
SIGNIFICANT WEATHER AND/OR OBSTRUCTIONS TO VISIBILITY.

NOT ALL STATIONS ARE QUALITY CONTROLLED BY THE NATIONAL
WEATHER SERVICE. USE DATA WITH CAUTION...ESPECIALLY
DEWPOINT OBSERVATIONS.

SCZ027-030-031-034>040-042>050-182200-
...SOUTH CAROLINA...

CITY           SKY/WX    TMP DP  RH WIND       PRES   REMARKS
N CHARLESTON   PTSUNNY   82  68  62 SE7       29.93R
WATERFRONT PRK   N/A     82 N/A N/A E9          N/A
FORT JOHNSON   NOT AVBL
MOUNT PLEASANT FAIR      81  73  78 CALM      29.93R
JOHNS ISLAND   CLOUDY    79  79 100 CALM      29.93R
PINOPOLIS        N/A     84  70  61 N7        29.85S
MONCKS CORNER    N/A     82  72  69 N5        29.93S
SUMMERVILLE    FAIR      81  72  74 NE5       29.94R
BEAUFORT MCAS  PTSUNNY   83  73  72 N5        29.91S
BEAUFORT ARPT  MOCLDY    77  75  94 CALM      29.91S
HILTON HEAD IS MOSUNNY   82  73  74 SE5       29.93R
GEORGETOWN     NOT AVBL
WALTERBORO     PTCLDY    82  66  57 NE7       29.93S
ORANGEBURG     SUNNY     83  66  56 VRB5      29.93F
BARNWELL       FAIR      82  68  61 E7        29.92F
AIKEN          HVY RAIN  77  72  83 CALM      29.98S
MANNING        FAIR      84  70  61 CALM      29.94S
KINGSTREE      NOT AVBL
COLUMBIA       MOSUNNY   82  64  54 E6        29.93S
SUMTER         SUNNY     84  62  47 E6        29.93S
FLORENCE       MOSUNNY   82  65  56 E10       29.94S
MYRTLE BEACH   MOSUNNY   81  70  69 E14       29.94S
N MYRTLE BEACH CLOUDY    81  69  67 E10       29.94S

$$

GAZ063-065-086>088-099>101-113>116-118-119-134-136>141-150-182200-
...GEORGIA...

CITY           SKY/WX    TMP DP  RH WIND       PRES   REMARKS
SAVANNAH ARPT  PTSUNNY   83  70  64 E5        29.92S
HUNTER AAF     PTSUNNY   83  72  69 E6        29.89F
FORT STEWART   PTSUNNY   84  71  63 E6        29.90R
STATESBORO     NOT AVBL
SYLVANIA       PTCLDY    87  71  59 CALM      29.92S HX  93
CLAXTON        FAIR      86  72  62 CALM      29.92R HX  92
THOMSON        MOSUNNY   85  72  65 W5        29.98S HX  90
AUGUSTA-BUSH   MOSUNNY   84  65  52 S3        29.92S
AUGUSTA-DANIEL CLOUDY    83  67  58 N5        29.94S
SWAINSBORO     FAIR      86  72  62 CALM      29.94S HX  92
VIDALIA        PTSUNNY   84  72  65 NE7       29.93S
ALMA           MOSUNNY   85  69  58 N5        29.91S
WAYCROSS       MOSUNNY   90  71  52 NE5       29.89S HX  96
JESUP          FAIR      88  72  58 NE3       29.90S HX  94
BRUNSWICK      MOSUNNY   86  70  58 E7        29.90S HX  90
SAINT SIMONS   MOSUNNY   84  71  65 E9        29.90S

$$

SCZ027-028-034-036>038-045-046-048>050-GAZ119-141-182200-
...LAKE AND SUPPLEMENTAL COASTAL OBSERVATIONS...

STATION/POSITION TIME  TEMP    WIND        PRES    WAVE   SWELL
                       AIR SEA DIR/SP/G            HT/PER HT/PER/DIR
                 (UTC) (F)     (DEG/KT/KT) (MB)    (FT/S) (FT/S/D)
UPR LAKE MARION  NOT AVBL
WINYAH BAY       2000   80      70/  8     1013.0S
LAKE MURRAY      2000   84     190/  3/  3 1013.2F
ACE BASIN NERRS  2000   83     140/  3     1013.0S
FORT PULASKI     2100   81     110/  5/  8 1013.1S
SAPELO ISLAND    NOT AVBL

$$

ANZ835-935-AMZ111-154-330-350-352-354-374-450-454-472-182200-
...C-MAN AND BUOY OBSERVATIONS...

STATION/POSITION TIME  TEMP    WIND        PRES    WAVE   SWELL
                       AIR SEA DIR/SP/G            HT/PER HT/PER/DIR
                 (UTC) (F)     (DEG/KT/KT) (MB)    (FT/S) (FT/S/D)
FOLLY BEACH CMAN 2100   81     130/  5/  6 1013.7S
BUOY 41004       2100   80 84   40/  8/ 10 1012.8S   3/10   3/10
BUOY 41008       2100   81 85  110/  6/  8 1012.6S   2/13   2/ 80/13
5E ST. MARYS GA  2100      85                N/A     2/11   2/110/11
FRYING PAN BUOY  NOT AVBL
BUOY 41025       2100   74     360/ 16/ 19 1014.9S   5/11   3/ 70/11
CAPE LOOKOUT NC  2100   75      50/ 15/ 18 1015.2S
BUOY 41002       2042   79 83   20/  8/ 10 1013.8R   3/10   3/ 90/10
BUOY 41010       2100   82 85   60/  8/ 10 1012.4F   4/12   3/ 60/12
BUOY 41012       NOT AVBL
ST AUGUSTINE FL  2100   82     100/ 10/ 11 1012.9R
CAPERS NEARSHORE 2000   82     110/  6/  6   N/A
FRIPP NEARSHORE  NOT AVBL


$$



USA.gov is the U.S. government's official web portal to all federal, state and local government web resources and services.